Temp
-14 -14 -14 -14 -14 -15 -17 -17 -17 -15 -15 -15 -15 -15 -15 -15 -15 -16 -16 -16 -16 -16 -16 -15 -15 -15 -15 -15 -16 -15 -15 -16 -16 -16 -16 -16 -16 -16 -16 -17 -17 -17 -17 -16
-15 -15 -15 -15 -15 -16 -17 -17 -17 -17 -16 -16 -16 -16 -16 -16 -16 -16 -16 -16 -16 -15 -15 -16 -15 -15 -16 -16 -16 -16 -17 -16 -16 -16 -17 -17 -17 -17 -17 -17 -17 -17 -17 -17
-16 -16 -17 -17 -17 -17 -18 -18 -17 -17 -18 -18 -17 -17 -16 -16 -16 -16 -16 -16 -16 -16 -16 -16 -16 -16 -16 -17 -17 -17 -17 -17 -18 -18 -18 -18 -18 -18 -18 -18 -17 -17 -17 -18
-18 -18 -18 -18 -18 -18 -19 -19 -18 -18 -18 -18 -18 -17 -17 -17 -17 -17 -17 -17 -17 -17 -17 -17 -17 -17 -17 -17 -17 -18 -18 -18 -18 -18 -18 -19 -19 -18 -18 -18 -18 -18 -19 -19
-19 -18 -18 -20 -19 -19 -19 -20 -20 -20 -19 -19 -18 -18 -17 -17 -17 -17 -17 -17 -18 -18 -17 -18 -18 -18 -18 -18 -18 -18 -18 -18 -19 -18 -19 -19 -18 -18 -18 -18 -19 -19 -19 -18
-21 -21 -19 -20 -20 -20 -20 -20 -20 -20 -19 -19 -18 -18 -18 -18 -18 -18 -18 -18 -18 -18 -18 -19 -19 -19 -19 -19 -19 -19 -19 -19 -19 -19 -20 -20 -19 -19 -19 -19 -19 -20 -19 -20
-21 -22 -22 -21 -20 -21 -21 -20 -21 -21 -21 -20 -20 -19 -19 -19 -19 -19 -19 -19 -19 -19 -20 -20 -20 -20 -20 -20 -20 -20 -20 -20 -21 -20 -20 -20 -20 -19 -19 -19 -20 -20 -20 -20
-21 -22 -22 -22 -22 -21 -21 -21 -20 -21 -20 -20 -20 -20 -20 -20 -20 -20 -20 -20 -20 -20 -21 -21 -21 -21 -21 -20 -20 -20 -20 -21 -22 -22 -21 -20 -20 -20 -20 -20 -20 -21 -21 -21
-23 -22 -22 -23 -23 -22 -21 -21 -21 -21 -20 -19 -20 -20 -20 -20 -21 -21 -21 -21 -22 -22 -22 -22 -22 -22 -21 -21 -21 -21 -21 -21 -22 -22 -22 -22 -21 -21 -21 -20 -20 -22 -22 -22
-24 -24 -23 -23 -23 -23 -23 -22 -22 -22 -23 -21 -21 -21 -21 -22 -22 -22 -22 -23 -23 -22 -23 -23 -23 -22 -22 -22 -21 -21 -21 -22 -22 -23 -23 -22 -22 -22 -21 -21 -22 -22 -22 -22
-24 -24 -24 -24 -24 -23 -24 -24 -23 -24 -24 -23 -23 -22 -22 -23 -24 -24 -24 -24 -23 -23 -23 -23 -22 -22 -22 -22 -22 -22 -22 -23 -23 -23 -23 -23 -23 -23 -22 -23 -22 -22 -22 -23
-25 -25 -25 -25 -25 -25 -25 -24 -23 -24 -25 -24 -25 -24 -24 -24 -24 -24 -24 -24 -23 -23 -23 -23 -23 -23 -23 -23 -23 -23 -23 -23 -24 -24 -24 -23 -23 -23 -23 -23 -23 -23 -23 -23
-25 -26 -25 -26 -26 -26 -26 -25 -25 -25 -25 -25 -25 -24 -25 -24 -24 -24 -24 -24 -24 -24 -24 -24 -24 -24 -23 -23 -23 -24 -24 -25 -24 -24 -24 -24 -24 -24 -23 -23 -23 -23 -23 -23
-26 -26 -27 -26 -26 -26 -26 -26 -26 -26 -26 -26 -26 -25 -25 -25 -25 -24 -25 -25 -25 -25 -24 -24 -24 -24 -24 -24 -25 -25 -25 -25 -25 -25 -24 -24 -24 -24 -24 -24 -24 -24 -24 -24
-27 -27 -27 -27 -26 -26 -26 -26 -26 -26 -26 -26 -26 -25 -25 -25 -25 -25 -25 -25 -25 -25 -25 -25 -25 -26 -26 -26 -25 -25 -25 -25 -25 -24 -24 -24 -24 -25 -24 -24 -24 -24 -24 -24
-28 -28 -27 -27 -26 -27 -27 -26 -26 -26 -26 -26 -26 -25 -25 -26 -26 -26 -26 -26 -26 -26 -26 -26 -26 -26 -26 -26 -25 -25 -25 -25 -25 -25 -24 -24 -24 -25 -25 -25 -25 -25 -25 -25
-28 -27 -27 -27 -27 -27 -27 -26 -26 -26 -26 -27 -27 -26 -26 -26 -26 -26 -26 -26 -26 -26 -26 -26 -26 -26 -26 -25 -25 -25 -25 -26 -25 -25 -25 -25 -25 -25 -26 -25 -25 -25 -25 -25
-27 -27 -27 -27 -27 -27 -27 -26 -26 -26 -27 -27 -27 -27 -27 -26 -26 -26 -26 -26 -26 -26 -26 -25 -25 -25 -25 -25 -25 -26 -26 -25 -25 -26 -26 -26 -26 -26 -26 -25 -26 -25 -25 -25
-27 -27 -27 -27 -27 -27 -27 -26 -26 -27 -27 -27 -27 -27 -27 -27 -26 -26 -26 -26 -26 -26 -26 -26 -26 -25 -25 -26 -26 -26 -26 -26 -26 -26 -26 -26 -26 -26 -26 -26 -26 -25 -25 -25
-27 -27 -27 -27 -27 -27 -26 -27 -26 -26 -27 -27 -27 -27 -27 -27 -27 -27 -27 -26 -26 -26 -26 -26 -26 -26 -27 -27 -26 -26 -26 -26 -26 -26 -27 -27 -27 -26 -26 -26 -26 -26 -26 -26
-27 -27 -27 -27 -27 -27 -27 -27 -27 -27 -26 -26 -26 -27 -27 -27 -27 -27 -27 -27 -27 -26 -27 -27 -26 -27 -27 -27 -27 -27 -27 -27 -27 -27 -27 -27 -26 -26 -26 -26 -26 -27 -27 -27
-27 -27 -27 -27 -27 -27 -27 -27 -27 -27 -27 -27 -27 -27 -27 -27 -27 -27 -27 -27 -27 -26 -27 -27 -27 -28 -27 -27 -27 -27 -27 -27 -27 -27 -27 -27 -27 -27 -27 -27 -28 -28 -28 -29
-27 -27 -27 -27 -27 -27 -26 -27 -27 -27 -27 -27 -27 -27 -27 -27 -27 -27 -27 -27 -27 -27 -27 -27 -28 -28 -28 -28 -28 -28 -28 -27 -27 -27 -27 -27 -27 -28 -28 -28 -29 -29 -29 -30
-27 -27 -27 -27 -27 -27 -27 -27 -27 -27 -27 -28 -28 -28 -28 -28 -28 -28 -28 -28 -28 -28 -28 -28 -28 -28 -28 -29 -28 -28 -28 -28 -28 -28 -28 -28 -28 -29 -29 -29 -29 -30 -30 -30
-27 -27 -27 -27 -27 -27 -27 -27 -28 -28 -28 -28 -28 -28 -29 -29 -29 -29 -29 -29 -29 -29 -29 -29 -29 -29 -29 -29 -29 -29 -29 -29 -29 -29 -29 -29 -29 -30 -30 -31 -30 -30 -30 -30
-27 -27 -27 -27 -28 -28 -28 -28 -28 -28 -29 -29 -29 -29 -29 -29 -29 -30 -30 -30 -30 -30 -30 -30 -30 -30 -30 -30 -29 -30 -30 -30 -30 -30 -30 -30 -30 -30 -31 -31 -30 -30 -29 -29
-28 -28 -28 -28 -29 -29 -29 -29 -29 -29 -30 -30 -30 -30 -30 -30 -31 -31 -31 -31 -31 -31 -31 -31 -31 -31 -31 -30 -30 -30 -31 -31 -31 -31 -31 -31 -31 -30 -30 -30 -30 -30 -29 -29
Height
5677 5679 5682 5683 5687 5690 5690 5691 5691 5696 5697 5697 5696 5699 5703 5704 5705 5703 5699 5697 5697 5697 5694 5693 5693 5691 5687 5688 5686 5683 5680 5678 5678 5677 5674 5672 5669 5666 5662 5656 5656 5652 5651 5649
5656 5659 5663 5666 5670 5671 5670 5671 5675 5678 5680 5681 5686 5689 5692 5691 5690 5688 5685 5686 5687 5686 5682 5681 5684 5680 5678 5676 5673 5670 5671 5666 5667 5666 5664 5663 5660 5656 5651 5649 5645 5642 5639 5639
5636 5640 5643 5646 5650 5653 5653 5654 5657 5662 5666 5668 5672 5676 5677 5676 5676 5674 5673 5676 5674 5671 5671 5669 5666 5668 5668 5665 5663 5659 5655 5658 5656 5656 5649 5647 5648 5647 5642 5638 5635 5632 5629 5629
5617 5622 5625 5628 5632 5633 5635 5638 5642 5647 5651 5658 5656 5659 5659 5662 5664 5663 5662 5661 5662 5658 5654 5657 5655 5654 5652 5654 5654 5648 5643 5645 5644 5645 5641 5638 5636 5633 5630 5628 5625 5619 5620 5615
5598 5604 5606 5609 5613 5614 5615 5623 5629 5634 5638 5641 5641 5641 5648 5650 5647 5647 5647 5647 5646 5642 5643 5644 5639 5640 5640 5641 5640 5636 5632 5630 5630 5633 5628 5625 5624 5621 5619 5616 5612 5609 5606 5604
5578 5583 5589 5592 5595 5595 5598 5607 5612 5613 5621 5625 5625 5631 5633 5632 5628 5633 5634 5631 5630 5630 5631 5627 5626 5624 5626 5625 5624 5624 5619 5616 5616 5617 5613 5610 5610 5612 5606 5603 5601 5597 5594 5592
5560 5564 5570 5573 5576 5581 5583 5589 5593 5593 5602 5606 5611 5614 5613 5615 5615 5614 5618 5617 5614 5618 5613 5611 5611 5610 5611 5612 5613 5610 5608 5604 5599 5600 5598 5596 5599 5596 5594 5592 5590 5586 5583 5580
5541 5547 5550 5555 5558 5562 5565 5572 5578 5577 5582 5590 5597 5596 5597 5597 5598 5597 5599 5602 5600 5598 5598 5596 5593 5596 5596 5599 5598 5598 5595 5591 5587 5584 5584 5585 5584 5584 5582 5579 5579 5576 5573 5570
5520 5526 5535 5540 5542 5543 5545 5554 5560 5556 5559 5575 5580 5577 5581 5583 5580 5582 5584 5585 5584 5584 5582 5581 5575 5578 5581 5581 5583 5584 5582 5578 5575 5573 5569 5568 5572 5571 5570 5569 5569 5566 5563 5561
5501 5508 5513 5520 5527 5529 5529 5536 5546 5543 5541 5558 5561 5562 5566 5565 5565 5564 5569 5570 5568 5569 5567 5566 5565 5565 5566 5566 5566 5568 5568 5564 5562 5561 5557 5556 5559 5557 5557 5557 5561 5554 5552 5552
5480 5490 5496 5502 5508 5512 5511 5522 5528 5528 5530 5538 5543 5547 5550 5552 5552 5551 5555 5554 5554 5555 5554 5554 5553 5550 5551 5552 5552 5550 5553 5551 5552 5550 5547 5545 5546 5545 5545 5546 5543 5543 5543 5542
5464 5472 5480 5488 5494 5497 5497 5507 5516 5514 5514 5520 5527 5531 5534 5536 5537 5539 5540 5540 5542 5541 5540 5540 5537 5536 5536 5538 5537 5536 5538 5538 5538 5537 5535 5533 5532 5533 5532 5532 5532 5532 5533 5532
5450 5456 5465 5475 5480 5483 5486 5495 5503 5502 5504 5509 5513 5519 5522 5524 5526 5526 5526 5526 5528 5528 5527 5525 5524 5522 5523 5522 5523 5523 5524 5525 5523 5522 5522 5520 5520 5520 5520 5520 5520 5521 5521 5522
5436 5443 5452 5460 5467 5472 5478 5485 5491 5492 5494 5495 5500 5505 5511 5512 5513 5514 5514 5514 5514 5514 5513 5511 5510 5509 5510 5509 5510 5510 5510 5511 5510 5508 5508 5507 5508 5508 5509 5508 5508 5508 5510 5511
5424 5432 5441 5449 5456 5465 5470 5474 5478 5482 5487 5487 5493 5497 5499 5500 5501 5502 5502 5501 5500 5499 5498 5497 5496 5496 5497 5497 5496 5498 5499 5498 5495 5495 5494 5494 5496 5494 5494 5496 5496 5497 5499 5500
5417 5424 5433 5441 5450 5455 5461 5464 5468 5474 5479 5478 5479 5484 5485 5487 5489 5490 5490 5489 5488 5488 5488 5487 5485 5486 5486 5483 5485 5487 5487 5484 5481 5481 5481 5481 5482 5482 5482 5484 5485 5486 5487 5488
5411 5418 5427 5435 5443 5449 5453 5459 5466 5466 5469 5470 5471 5472 5476 5478 5478 5479 5479 5478 5478 5478 5477 5475 5475 5474 5472 5471 5473 5474 5473 5471 5469 5469 5469 5470 5470 5471 5472 5473 5475 5475 5476 5476
5411 5418 5425 5432 5438 5444 5446 5450 5455 5458 5461 5461 5461 5462 5467 5468 5468 5468 5468 5467 5466 5465 5464 5465 5463 5462 5460 5460 5462 5460 5458 5458 5458 5458 5458 5459 5460 5461 5461 5462 5463 5463 5463 5462
5411 5417 5423 5429 5434 5436 5438 5442 5446 5450 5454 5453 5454 5455 5456 5457 5457 5456 5455 5454 5453 5453 5453 5453 5451 5451 5450 5450 5449 5448 5448 5448 5449 5449 5449 5450 5450 5450 5450 5450 5450 5449 5448 5446
5410 5415 5420 5425 5429 5432 5435 5437 5439 5441 5442 5443 5444 5445 5445 5446 5445 5443 5444 5443 5441 5441 5443 5440 5439 5440 5439 5438 5438 5439 5439 5439 5440 5440 5440 5440 5440 5439 5438 5436 5434 5433 5432 5430
5411 5413 5416 5420 5423 5426 5428 5429 5431 5432 5432 5433 5433 5433 5433 5432 5432 5431 5431 5430 5430 5430 5431 5429 5430 5432 5430 5429 5429 5430 5430 5431 5430 5430 5428 5427 5426 5424 5423 5421 5418 5416 5414 5413
5406 5409 5410 5413 5415 5417 5419 5421 5422 5422 5422 5422 5422 5422 5422 5422 5421 5421 5421 5421 5420 5421 5423 5422 5423 5423 5421 5421 5420 5420 5419 5419 5418 5417 5415 5413 5412 5409 5408 5405 5402 5400 5400 5399
5402 5404 5405 5407 5410 5411 5412 5413 5413 5413 5413 5414 5414 5414 5414 5414 5414 5413 5413 5412 5412 5412 5412 5413 5415 5412 5411 5411 5409 5408 5407 5406 5404 5403 5401 5400 5397 5394 5392 5391 5388 5387 5387 5386
5399 5400 5402 5404 5405 5406 5406 5407 5407 5408 5407 5407 5407 5407 5407 5406 5405 5404 5404 5403 5402 5401 5402 5402 5400 5400 5399 5398 5396 5395 5393 5392 5391 5389 5387 5385 5383 5381 5378 5376 5376 5375 5376 5378
5398 5399 5400 5400 5401 5401 5401 5401 5400 5400 5399 5399 5399 5398 5398 5396 5396 5395 5394 5392 5391 5391 5390 5389 5388 5388 5386 5385 5383 5382 5380 5378 5377 5374 5372 5371 5369 5368 5366 5363 5365 5366 5367 5368
5396 5395 5395 5395 5394 5394 5393 5393 5392 5391 5390 5390 5390 5388 5388 5387 5385 5385 5383 5382 5380 5379 5376 5376 5375 5374 5372 5371 5370 5369 5368 5366 5364 5361 5360 5359 5358 5357 5357 5357 5357 5357 5356 5356
5389 5389 5388 5387 5386 5386 5385 5384 5383 5382 5381 5380 5379 5378 5376 5375 5374 5373 5371 5369 5367 5365 5364 5362 5360 5359 5357 5356 5356 5356 5355 5353 5352 5351 5350 5350 5349 5349 5350 5350 5349 5347 5346 5344
Wind_Speed
85 83 85 79 82 76 66 64 65 68 65 62 60 60 55 53 49 48 50 50 50 50 54 52 50 52 54 54 53 55 54 51 50 47 47 47 46 43 42 39 39 42 43 42
86 84 80 78 79 75 70 69 66 69 69 67 60 55 53 51 53 55 56 55 52 53 53 56 54 55 54 54 54 53 49 51 50 47 47 45 43 43 43 43 42 43 43 44
82 82 78 77 77 76 72 75 73 71 61 58 55 56 57 58 57 56 55 54 54 55 53 54 57 55 53 51 51 50 52 51 48 48 45 44 44 46 49 49 49 45 47 39
79 79 79 81 81 74 69 66 66 62 59 54 55 59 60 60 57 56 56 57 56 55 58 56 55 55 54 54 52 51 53 52 52 50 48 47 47 49 50 51 49 48 43 44
80 84 70 71 71 73 71 64 60 58 60 59 60 59 59 57 56 58 59 60 58 59 58 53 55 55 55 55 55 55 54 54 53 51 50 50 49 48 49 49 46 44 42 42
77 75 77 68 72 69 63 63 60 60 58 61 60 57 55 54 56 58 59 60 60 58 56 57 59 59 60 57 56 54 53 54 55 54 54 55 54 46 48 46 41 39 39 36
77 75 71 72 70 67 68 67 62 61 64 66 62 63 67 64 64 66 64 64 63 62 61 62 63 57 56 59 57 56 55 56 54 56 57 56 53 48 45 42 39 40 39 38
74 68 72 72 72 75 69 75 75 71 71 68 67 69 68 69 69 64 66 67 66 66 62 58 59 59 57 52 53 54 55 54 54 57 56 54 48 42 41 41 39 38 35 34
74 72 67 62 71 77 79 77 73 74 78 76 73 68 66 63 63 65 64 59 55 50 52 57 58 57 57 59 55 51 53 51 49 47 47 46 43 42 42 41 38 35 34 31
75 75 72 70 66 64 69 67 65 68 63 66 66 67 64 59 54 56 53 48 52 56 55 55 57 55 55 54 53 52 49 48 45 41 45 47 43 43 45 44 38 37 34 31
66 73 69 70 67 61 60 55 59 60 57 55 57 59 55 49 48 49 49 51 53 52 54 54 53 53 53 53 51 51 48 45 44 43 44 48 46 48 44 41 40 38 37 32
62 63 65 66 63 57 59 54 48 46 46 45 45 44 43 45 45 47 47 49 49 50 49 50 53 54 53 53 53 51 48 46 45 45 50 52 50 44 42 42 41 40 38 34
57 58 61 60 58 56 55 46 39 41 45 48 43 43 42 43 43 45 43 43 46 49 50 51 52 53 52 51 51 50 51 50 53 53 48 46 44 41 41 40 39 39 38 37
48 47 48 49 50 49 45 41 39 40 42 47 45 42 42 42 41 41 44 50 54 52 51 52 53 52 51 50 48 46 44 41 43 46 45 44 42 42 39 38 37 37 39 39
36 38 39 41 44 39 38 39 40 41 42 45 42 40 40 38 40 47 46 47 50 50 48 48 47 46 44 45 44 41 41 42 45 44 43 44 42 40 40 37 37 38 38 39
30 34 35 34 33 36 35 39 43 39 39 39 39 40 39 38 44 44 42 41 39 38 38 39 41 40 43 45 44 40 40 42 45 45 46 43 40 36 35 35 37 37 36 35
28 29 30 29 30 30 36 36 32 33 33 34 36 43 46 43 37 38 39 38 38 39 41 42 43 43 45 45 42 41 42 40 41 42 41 38 36 34 34 35 34 33 34 35
19 20 22 24 24 28 33 31 28 26 27 29 33 36 36 38 40 40 40 41 43 43 43 41 43 44 44 41 36 35 36 37 37 35 34 33 34 33 33 33 34 36 39 42
19 22 23 19 17 20 24 35 40 39 36 37 39 42 40 40 41 42 43 45 45 45 43 43 43 40 38 34 33 32 32 31 30 31 32 32 31 32 35 38 41 43 45 47
9 12 22 20 22 27 31 36 40 41 46 50 44 41 42 43 45 47 47 45 45 45 42 40 39 32 29 29 29 28 28 29 29 30 31 33 36 39 42 44 45 46 47 48
18 20 23 24 27 28 33 37 39 41 42 42 43 43 43 42 42 42 43 41 38 37 31 30 27 22 25 28 28 29 29 30 32 35 37 40 41 43 44 45 47 48 48 46
19 21 25 27 27 27 30 31 35 36 37 35 33 32 31 29 29 29 28 29 30 29 26 27 25 24 28 30 31 33 35 37 39 40 41 42 43 45 46 46 46 45 42 38
12 14 17 20 22 24 25 23 22 22 21 22 21 22 22 23 24 25 26 28 29 28 30 29 27 31 33 34 36 37 39 40 41 42 43 43 43 44 43 42 41 38 34 29
2 3 5 9 11 14 16 17 18 19 20 21 22 23 23 25 27 28 30 32 33 35 34 32 35 35 36 37 39 40 41 42 42 42 41 41 41 40 39 38 34 28 25 27
5 8 10 12 14 16 18 19 21 22 23 25 26 27 28 29 30 32 33 34 36 37 38 39 39 39 40 41 42 42 42 41 40 40 40 39 37 35 32 31 23 23 26 30
9 11 12 14 16 17 18 20 21 23 24 26 27 29 30 32 34 34 36 38 39 40 43 43 42 42 43 42 42 40 40 38 38 39 37 34 32 29 23 22 24 27 31 33
17 17 18 19 20 21 22 23 24 26 27 29 30 31 33 34 36 36 38 39 41 42 41 42 43 43 43 42 40 37 35 34 35 33 30 27 24 20 19 22 27 30 30 31
Wind_Direction
264 263 262 262 265 263 260 260 261 265 266 267 267 269 271 273 275 275 276 275 277 283 284 284 285 287 288 292 294 293 296 297 298 301 301 301 300 300 298 298 302 298 295 293
259 261 260 263 262 261 260 258 256 257 264 265 266 268 269 268 271 271 272 275 279 277 280 284 284 285 288 290 291 293 296 295 298 300 298 297 296 297 299 299 297 299 298 297
257 258 258 259 259 261 256 257 258 262 261 261 262 265 267 266 266 268 271 275 277 280 282 282 284 286 287 287 289 291 292 293 296 298 296 296 296 293 293 294 292 295 293 293
254 256 258 258 260 255 256 259 259 260 260 262 260 260 261 263 269 271 274 275 279 280 280 282 285 284 285 287 286 286 288 290 291 292 291 291 295 293 293 293 292 290 289 284
258 260 255 253 259 255 253 255 260 260 259 257 256 257 260 266 269 271 274 277 276 277 281 284 283 284 285 286 285 287 286 290 289 289 289 291 291 289 293 294 290 288 287 283
256 255 256 258 255 257 254 250 253 256 256 255 256 259 262 263 266 267 272 273 277 281 282 283 282 284 284 284 284 286 288 290 288 287 287 291 290 292 289 289 291 289 290 286
251 254 255 257 257 257 257 252 250 254 255 254 257 258 257 261 265 266 271 273 276 276 279 280 280 280 280 282 283 286 287 285 285 285 287 287 292 289 288 288 288 289 288 286
249 250 252 250 254 256 254 256 251 253 253 254 254 257 259 261 262 265 268 271 277 278 279 278 276 279 281 282 281 284 282 281 281 284 285 287 287 285 287 289 289 293 289 282
258 255 248 256 256 256 255 253 252 255 256 254 256 258 261 265 267 268 271 273 276 276 273 275 279 282 282 283 285 279 278 279 280 282 286 285 282 284 284 287 286 288 285 278
251 252 257 257 249 255 258 257 257 258 262 259 262 265 267 267 268 268 268 269 269 274 275 276 279 280 278 278 279 278 277 277 277 280 280 280 283 286 287 286 290 285 280 272
247 249 248 252 258 257 257 260 260 259 259 258 259 262 265 266 265 268 268 269 274 274 272 273 275 276 276 277 278 278 276 274 273 275 276 281 286 286 285 283 281 280 278 272
244 243 245 249 252 254 258 260 258 254 253 260 257 261 264 265 269 270 271 271 269 268 271 273 275 275 276 276 276 276 275 274 274 277 281 280 283 282 282 280 277 278 276 270
242 242 242 245 247 252 259 258 254 256 257 259 257 265 265 268 265 265 266 268 270 273 272 272 273 274 275 275 276 275 275 273 273 277 278 278 279 281 281 278 276 274 271 270
241 240 239 241 242 244 250 254 255 251 253 253 257 262 263 262 262 262 261 262 266 270 272 273 273 273 275 275 275 274 274 274 277 278 277 276 277 278 278 276 274 273 271 269
229 228 229 231 235 238 240 243 244 245 246 252 256 259 260 259 255 263 268 269 270 271 272 273 273 272 274 275 275 276 278 278 277 277 277 281 280 274 271 269 270 270 269 266
213 216 219 225 227 229 232 236 240 245 248 254 258 261 250 260 266 264 266 267 269 272 274 274 275 277 275 274 274 275 277 277 277 278 276 274 272 270 270 269 268 266 265 264
207 209 213 217 222 226 232 240 245 247 247 251 249 249 256 260 262 265 266 269 272 273 274 275 275 275 274 275 276 276 275 273 271 270 269 269 270 269 267 268 266 266 269 270
197 196 199 209 219 226 235 241 241 238 259 254 257 259 259 263 265 267 269 269 271 272 273 275 276 274 275 278 275 275 271 267 267 268 267 268 268 268 267 269 272 273 274 274
201 200 204 198 219 235 227 239 229 231 250 259 266 265 263 261 264 266 268 272 274 275 275 276 274 275 274 274 269 266 267 266 265 265 266 267 270 273 274 275 276 276 277 278
177 195 206 225 220 230 235 238 245 249 251 258 258 258 262 266 268 271 272 272 273 275 276 273 273 274 269 268 267 265 266 268 268 270 273 273 273 274 275 277 279 279 279 279
214 234 234 233 234 240 235 236 241 247 253 257 260 262 265 265 264 265 265 268 269 270 269 269 271 270 265 264 268 270 270 271 271 272 274 276 277 279 280 280 280 279 279 279
223 226 230 233 237 237 239 245 250 253 255 258 258 257 257 258 259 261 261 262 265 267 268 266 270 269 268 270 272 273 274 275 277 278 279 280 281 281 280 280 279 279 279 275
207 221 227 232 233 239 246 247 246 246 248 251 253 253 254 255 258 261 264 266 270 272 272 275 274 269 270 272 273 274 276 277 278 280 281 281 280 279 278 277 277 276 272 257
309 276 261 248 247 246 248 250 255 256 257 259 261 263 265 265 266 268 270 271 273 274 277 276 274 275 276 276 277 277 279 280 281 281 281 279 278 278 278 278 274 264 248 253
281 274 263 257 255 255 257 259 261 263 265 266 267 268 268 269 270 270 272 274 274 277 277 275 275 277 277 277 277 278 279 280 281 280 278 278 279 279 276 272 259 253 260 265
290 285 278 273 271 270 269 269 269 270 271 272 272 271 272 271 271 273 272 273 274 274 274 278 279 278 276 276 277 278 278 278 276 275 277 278 277 275 264 259 266 273 275 278
309 301 296 291 286 283 280 278 275 274 273 272 273 273 272 275 273 274 274 274 276 278 278 277 277 276 277 277 277 276 275 273 272 273 272 273 269 258 259 272 280 281 278 277